When you browse on this site, cookies collect data to enhance your experience and personalize the content and advertising you see.
Visit our Privacy Policy to learn more. By continuing to use the site, you agree to this use of cookies and data.
  • en Suisse
  • Liste des pays
  • À 7 jours
  • Température de l'eau
  • Carte météo
  • Widgets météo
  • user-avatar
    Se connecter

    Météo par heure à Osovo

    Ce jour, 19 Août, Lundi

    Heure Température Précipitation Vent Pression Humidité
    00:00 +14°C° 0 mm 1 m/s 744 mmHg 93%
    01:00 +14°C° 0 mm 1 m/s 744 mmHg 93%
    02:00 +13°C° 0 mm 1 m/s 744 mmHg 93%
    03:00 +13°C° 0 mm 1 m/s 744 mmHg 93%
    04:00 +13°C° 0 mm 1 m/s 745 mmHg 93%
    05:00 +12°C° 0 mm 1 m/s 745 mmHg 93%
    06:00 +14°C° 0 mm 2 m/s 745 mmHg 88%
    07:00 +16°C° 0 mm 2 m/s 745 mmHg 84%
    08:00 +18°C° 0 mm 2 m/s 745 mmHg 79%
    09:00 +20°C° 0 mm 2 m/s 746 mmHg 74%
    10:00 +21°C° 0 mm 3 m/s 746 mmHg 70%
    11:00 +24°C° 0 mm 3 m/s 746 mmHg 66%
    12:00 +25°C° 0 mm 3 m/s 746 mmHg 65%
    13:00 +26°C° 0 mm 4 m/s 746 mmHg 64%
    14:00 +26°C° 0 mm 4 m/s 746 mmHg 63%
    15:00 +26°C° 0.1 mm 4 m/s 746 mmHg 67%
    16:00 +25°C° 0.1 mm 3 m/s 746 mmHg 72%
    17:00 +25°C° 0.1 mm 3 m/s 746 mmHg 76%
    18:00 +22°C° 0.1 mm 3 m/s 746 mmHg 81%
    19:00 +21°C° 0.1 mm 3 m/s 746 mmHg 86%
    20:00 +20°C° 0.1 mm 3 m/s 746 mmHg 92%
    21:00 +19°C° 0.3 mm 3 m/s 746 mmHg 93%
    22:00 +19°C° 0.3 mm 3 m/s 746 mmHg 94%
    23:00 +19°C° 0.3 mm 3 m/s 746 mmHg 95%

    Demain, 20 Août, Mardi

    Heure Température Précipitation Vent Pression Humidité
    00:00 +19°C° 0.1 mm 3 m/s 747 mmHg 95%
    01:00 +18°C° 0.1 mm 2 m/s 747 mmHg 96%
    02:00 +18°C° 0.1 mm 2 m/s 747 mmHg 96%
    03:00 +18°C° 0.4 mm 2 m/s 747 mmHg 96%
    04:00 +19°C° 0.4 mm 1 m/s 748 mmHg 97%
    05:00 +19°C° 0.4 mm 1 m/s 748 mmHg 98%
    06:00 +20°C° 0.2 mm 1 m/s 748 mmHg 96%
    07:00 +20°C° 0.2 mm 1 m/s 748 mmHg 94%
    08:00 +21°C° 0.2 mm 1 m/s 749 mmHg 93%
    09:00 +22°C° 0.1 mm 1 m/s 749 mmHg 89%
    10:00 +23°C° 0.1 mm 2 m/s 749 mmHg 85%
    11:00 +24°C° 0.1 mm 2 m/s 749 mmHg 82%
    12:00 +24°C° 0.2 mm 2 m/s 749 mmHg 80%
    13:00 +25°C° 0.2 mm 1 m/s 749 mmHg 77%
    14:00 +25°C° 0.2 mm 1 m/s 750 mmHg 75%
    15:00 +25°C° 0.6 mm 1 m/s 750 mmHg 80%
    16:00 +24°C° 0.6 mm 1 m/s 750 mmHg 84%
    17:00 +24°C° 0.6 mm 1 m/s 750 mmHg 89%
    18:00 +23°C° 0.1 mm 1 m/s 750 mmHg 91%
    19:00 +22°C° 0.1 mm 1 m/s 750 mmHg 92%
    20:00 +21°C° 0.1 mm 1 m/s 750 mmHg 94%
    21:00 +20°C° 0 mm 1 m/s 750 mmHg 95%
    22:00 +19°C° 0 mm 1 m/s 750 mmHg 95%
    23:00 +19°C° 0 mm 1 m/s 751 mmHg 96%

    Après-demain, 21 Août, Mercredi

    Heure Température Précipitation Vent Pression Humidité
    00:00 +18°C° 0 mm 1 m/s 751 mmHg 96%
    01:00 +18°C° 0 mm 1 m/s 751 mmHg 97%
    02:00 +18°C° 0 mm 1 m/s 751 mmHg 97%
    03:00 +18°C° 0 mm 1 m/s 751 mmHg 97%
    04:00 +16°C° 0 mm 1 m/s 751 mmHg 98%
    05:00 +16°C° 0 mm 1 m/s 751 mmHg 98%
    06:00 +18°C° 0 mm 1 m/s 751 mmHg 97%
    07:00 +19°C° 0 mm 1 m/s 751 mmHg 95%
    08:00 +21°C° 0 mm 1 m/s 751 mmHg 94%
    09:00 +22°C° 0 mm 1 m/s 751 mmHg 91%
    10:00 +23°C° 0 mm 1 m/s 750 mmHg 87%
    11:00 +24°C° 0 mm 1 m/s 750 mmHg 84%
    12:00 +25°C° 0.3 mm 1 m/s 750 mmHg 81%
    13:00 +25°C° 0.3 mm 1 m/s 750 mmHg 78%
    14:00 +26°C° 0.3 mm 2 m/s 749 mmHg 75%
    15:00 +26°C° 0.9 mm 2 m/s 749 mmHg 80%
    16:00 +25°C° 0.9 mm 2 m/s 749 mmHg 84%
    17:00 +25°C° 0.9 mm 2 m/s 748 mmHg 88%
    18:00 +24°C° 1.2 mm 2 m/s 748 mmHg 90%
    19:00 +23°C° 1.2 mm 2 m/s 748 mmHg 92%
    20:00 +21°C° 1.2 mm 2 m/s 748 mmHg 94%
    21:00 +20°C° 0.4 mm 2 m/s 748 mmHg 95%
    22:00 +20°C° 0.4 mm 2 m/s 748 mmHg 95%
    23:00 +19°C° 0.4 mm 2 m/s 749 mmHg 96%

    22 Août, Jeudi

    Heure Température Précipitation Vent Pression Humidité
    00:00 +18°C° 0.2 mm 3 m/s 749 mmHg 96%
    01:00 +17°C° 0.2 mm 3 m/s 749 mmHg 96%
    02:00 +16°C° 0.2 mm 3 m/s 749 mmHg 97%
    03:00 +14°C° 0.3 mm 3 m/s 749 mmHg 96%
    04:00 +14°C° 0.3 mm 4 m/s 749 mmHg 96%
    05:00 +14°C° 0.3 mm 4 m/s 749 mmHg 96%
    06:00 +14°C° 0 mm 3 m/s 750 mmHg 94%
    07:00 +16°C° 0 mm 3 m/s 750 mmHg 93%
    08:00 +16°C° 0 mm 3 m/s 751 mmHg 91%
    09:00 +17°C° 0 mm 3 m/s 751 mmHg 87%
    10:00 +17°C° 0 mm 3 m/s 751 mmHg 84%
    11:00 +18°C° 0 mm 3 m/s 751 mmHg 80%
    12:00 +19°C° 0 mm 3 m/s 751 mmHg 76%
    13:00 +20°C° 0 mm 3 m/s 751 mmHg 72%
    14:00 +21°C° 0 mm 3 m/s 751 mmHg 68%
    15:00 +21°C° 0 mm 2 m/s 751 mmHg 69%
    16:00 +21°C° 0 mm 2 m/s 751 mmHg 70%
    17:00 +21°C° 0 mm 2 m/s 751 mmHg 72%
    18:00 +19°C° 0 mm 2 m/s 751 mmHg 77%
    19:00 +18°C° 0 mm 2 m/s 751 mmHg 81%
    20:00 +16°C° 0 mm 2 m/s 751 mmHg 86%
    21:00 +16°C° 0 mm 2 m/s 751 mmHg 88%
    22:00 +15°C° 0 mm 2 m/s 751 mmHg 90%
    23:00 +14°C° 0 mm 1 m/s 751 mmHg 91%

    23 Août, Vendredi

    Heure Température Précipitation Vent Pression Humidité
    00:00 +14°C° 0 mm 1 m/s 751 mmHg 93%
    01:00 +13°C° 0 mm 1 m/s 751 mmHg 94%
    02:00 +13°C° 0 mm 1 m/s 751 mmHg 95%
    03:00 +13°C° 0 mm 1 m/s 751 mmHg 95%
    04:00 +12°C° 0 mm 1 m/s 751 mmHg 96%
    05:00 +12°C° 0 mm 1 m/s 751 mmHg 96%
    06:00 +14°C° 0 mm 1 m/s 751 mmHg 91%
    07:00 +15°C° 0 mm 1 m/s 752 mmHg 86%
    08:00 +18°C° 0 mm 1 m/s 752 mmHg 80%
    09:00 +18°C° 0.1 mm 2 m/s 752 mmHg 75%
    10:00 +19°C° 0.1 mm 2 m/s 752 mmHg 70%
    11:00 +21°C° 0.1 mm 2 m/s 752 mmHg 64%
    12:00 +21°C° 0.1 mm 2 m/s 752 mmHg 62%
    13:00 +21°C° 0.1 mm 3 m/s 752 mmHg 59%
    14:00 +21°C° 0.1 mm 3 m/s 752 mmHg 56%
    15:00 +21°C° 0 mm 3 m/s 752 mmHg 60%
    16:00 +20°C° 0 mm 3 m/s 752 mmHg 64%
    17:00 +20°C° 0 mm 2 m/s 752 mmHg 67%
    18:00 +18°C° 0 mm 2 m/s 752 mmHg 74%
    19:00 +16°C° 0 mm 2 m/s 752 mmHg 82%
    20:00 +14°C° 0 mm 2 m/s 752 mmHg 89%
    21:00 +13°C° 0 mm 2 m/s 753 mmHg 90%
    22:00 +13°C° 0 mm 2 m/s 753 mmHg 92%
    23:00 +12°C° 0 mm 2 m/s 753 mmHg 94%

    24 Août, Samedi

    Heure Température Précipitation Vent Pression Humidité
    00:00 +12°C° 0 mm 2 m/s 753 mmHg 94%
    01:00 +10°C° 0 mm 2 m/s 753 mmHg 94%
    02:00 +10°C° 0 mm 2 m/s 753 mmHg 95%
    03:00 +10°C° 0 mm 2 m/s 753 mmHg 95%
    04:00 +9°C° 0 mm 2 m/s 754 mmHg 95%
    05:00 +9°C° 0 mm 2 m/s 754 mmHg 95%
    06:00 +12°C° 0 mm 2 m/s 754 mmHg 89%
    07:00 +14°C° 0 mm 2 m/s 754 mmHg 83%
    08:00 +16°C° 0 mm 2 m/s 754 mmHg 76%
    09:00 +17°C° 0 mm 2 m/s 754 mmHg 70%
    10:00 +19°C° 0 mm 2 m/s 754 mmHg 63%
    11:00 +20°C° 0 mm 2 m/s 755 mmHg 56%
    12:00 +21°C° 0 mm 2 m/s 754 mmHg 55%
    13:00 +21°C° 0 mm 2 m/s 754 mmHg 53%
    14:00 +23°C° 0 mm 1 m/s 754 mmHg 52%
    15:00 +23°C° 0 mm 1 m/s 754 mmHg 57%
    16:00 +22°C° 0 mm 1 m/s 754 mmHg 62%
    17:00 +22°C° 0 mm 1 m/s 754 mmHg 66%
    18:00 +20°C° 0 mm 1 m/s 754 mmHg 72%
    19:00 +18°C° 0 mm 1 m/s 754 mmHg 77%
    20:00 +14°C° 0 mm 0 m/s 754 mmHg 82%
    21:00 +14°C° 0 mm 1 m/s 754 mmHg 84%
    22:00 +14°C° 0 mm 1 m/s 754 mmHg 86%
    23:00 +13°C° 0 mm 1 m/s 754 mmHg 88%
    Voir plus